Poll

ID Poll Question Votes Date
706 How long did it take you to notice a new poll? 59 03/08/2015 2:00:03 PM
705 Crazy Tuesdays? 57 23/05/2014 2:00:05 PM
704 Just FYI, the poll for yesterday has no real bearing on what will happen. 9 22/05/2014 2:00:04 PM
703 Community Choice Vote! Ban GarthDurf? 13 21/05/2014 2:00:04 PM
702 Which would be harder to live without? 39 21/01/2014 3:00:04 PM
701 Most overrated band 9 19/01/2014 3:00:04 PM
700 Superb Owl Winner 9 18/01/2014 3:00:04 PM
699 You see a vegetarian grabbing a helping of nondescript food that you know contains meat. You 24 11/12/2013 3:00:04 PM
698 One of your eyes gets stabbed out. 32 23/09/2013 2:00:04 PM
697 Best LUE2 game of frends 19 19/08/2013 2:00:04 PM
696 You get injured in two places and can only save one of the organs. You'd rather lose your: 22 23/06/2013 2:00:03 PM
695 Better soda: 29 03/05/2013 2:00:03 PM
694 Hurr durr poll lol 31 31/10/2012 2:00:09 PM
693 Holy shit we have a poll making thing up here 17 26/10/2012 2:00:06 PM
692 Favorite handegg? 26 06/09/2012 2:00:09 PM
691 Would you rather 15 25/07/2012 2:00:19 PM
690 Which did you enjoy more 17 15/06/2012 2:00:04 PM
689 Which will live for a greater number of years from now? 38 23/03/2012 2:00:07 PM
688 Bigger attention whore: 30 28/02/2012 3:00:05 PM
687 Would you eat horse meat? 33 08/02/2012 3:00:04 PM
686 Super Bowl winner prediction 16 03/02/2012 3:00:04 PM
685 Patchy 16 31/01/2012 3:00:03 PM
684 First in your heart 45 19/11/2011 3:00:06 PM
683 The weather. I prefer it when it is: 36 30/10/2011 2:00:08 PM
682 A ghetto black woman starts a fight with you and begins assaulting you. You should be allowed to: 28 19/10/2011 2:00:09 PM
681 Rather be eaten by a 44 18/06/2011 2:00:04 PM
680 Do you do weed? 36 25/05/2011 2:00:04 PM
679 Do we need more users? 31 07/05/2011 2:00:03 PM
678 Worse place to live: 35 21/04/2011 2:00:05 PM
677 Worse place to live: 18 18/04/2011 2:00:04 PM
676 If you eat it, how do you balance your peanut butter and jelly? 27 04/04/2011 2:00:05 PM
675 If you're walking in the rain and it's extremely windy, do you still attempt the token protection of an umbrella? 24 27/03/2011 2:00:04 PM
674 Would you bone Katy Perry? 28 22/03/2011 2:00:04 PM
673 Sexier 14 18/03/2011 2:00:04 PM
672 Okay, you three-testicled faggots. Would you rather: 14 15/03/2011 2:00:04 PM
671 You have three testicles. Do you: 20 09/03/2011 3:00:07 PM
670 I'm 27 17/02/2011 3:00:05 PM
669 Beat your meat: 27 10/02/2011 3:00:05 PM
668 Would you rather: 24 03/02/2011 3:00:06 PM
667 Crazy Tuesdays: TOO crazy? 25 27/01/2011 3:00:06 PM
666 Worse to live with: 44 15/12/2010 3:00:04 PM
665 More embarrassing to lose a front tooth from the 19 08/12/2010 3:00:03 PM
664 You have to take a monster piss but your roommate's girlfriend is in the bathroom taking an hourlong dump. Do you: 29 24/11/2010 3:00:04 PM
663 Benjamin "Lil" Brossman 32 13/11/2010 3:00:04 PM
662 I, Brossman, can't be the only one to smell my own fingers after I wipe my shitty bumhole... Can I? 23 11/11/2010 3:00:03 PM
661 You are strapped into a chair with your eyelids clamped open. The more agonizing torture is watching endless 48 21/10/2010 2:00:03 PM
660 More interesting right now: 28 11/10/2010 2:00:04 PM
659 What do you miss more? 26 04/10/2010 2:00:07 PM
658 Deadlier robot-like faction 34 21/09/2010 2:00:17 PM
657 You can't get rid of one of these background noises for the rest of your life. You'd prefer 22 10/09/2010 2:00:10 PM
656 More annoying chronic condition? 19 09/09/2010 2:00:11 PM
655 Who is the worst poster? 19 08/09/2010 2:00:17 PM
654 If both men were in their prime, who would win in a fight? 40 14/08/2010 2:00:21 PM
653 TS is the worst poster: 35 03/08/2010 2:00:21 PM
652 27 23/07/2010 2:00:27 PM
651 Oh shit, 8 minutes and no poll, what do I do? 31 21/07/2010 2:00:23 PM
650 Worse fate to befall you tomorrow: 20 20/07/2010 2:00:28 PM
649 At the conclusion of this Worst User Contest, you hope that the winner(s) are: 42 16/07/2010 2:00:24 PM
648 Worst User Contest: Finals 39 14/07/2010 2:00:22 PM
647 Biggest idiot: 25 13/07/2010 2:00:19 PM
646 Worst User Contest: Semi-Finals, XIV 34 12/07/2010 2:00:20 PM
645 Worst User Contest: Semi-Finals, XIII 38 11/07/2010 2:00:20 PM
644 Worst User Contest: Second Round, XII 36 10/07/2010 2:00:15 PM
643 Worst User Contest: Second Round, XI 39 09/07/2010 2:00:20 PM
642 Worst User Contest: Second Round, X 33 08/07/2010 2:00:15 PM
641 Worst User Contest: Second Round, IX 40 07/07/2010 2:00:23 PM
640 Worst User Contest: First Round, VIII 28 06/07/2010 2:00:22 PM
639 Worst User Contest: First Round, VII 40 05/07/2010 2:00:16 PM
638 Worst User Contest: First Round, VI 39 04/07/2010 2:00:25 PM
637 Worst User Contest: First Round, V 37 03/07/2010 2:00:22 PM
636 Worst User Contest: First Round, IV 34 02/07/2010 2:00:22 PM
635 Worst User Contest: First Round, III 34 01/07/2010 2:00:20 PM
634 Worst User Contest: First Round, II 30 30/06/2010 2:00:17 PM
633 Worst User Contest: First Round, I 34 29/06/2010 2:00:29 PM
632 Bigger eater: 25 25/06/2010 2:00:32 PM
631 Bigger eater 13 24/06/2010 2:00:21 PM
630 In 2016, I will vote for the following person to be president: 15 23/06/2010 2:00:18 PM
629 Ron Artest: 16 19/06/2010 2:00:14 PM
628 Worse to drown to death in 30 13/06/2010 2:00:18 PM
627 This time, the person hit with the car was Luigiman 27 12/06/2010 2:00:22 PM
626 It's late at night, you're speeding in your car, when you accidentally run over a pedestrian. You're in the middle of nowhere, no one witnessed the accident. You: 33 11/06/2010 2:00:19 PM
625 Dynamic sigs? (one sig attached to every post, set in your user info page) 48 02/06/2010 2:00:18 PM
624 Favored LUE2 one-liner 42 29/05/2010 2:00:19 PM
623 Laffier LUE2 moment: 33 28/05/2010 2:00:30 PM
622 KFC's Double-Down Sandwich? 63 17/05/2010 2:00:16 PM
621 TS is an idiot: 33 14/05/2010 2:00:21 PM
620 Favorite fatass from the golden age of sitcoms 40 04/05/2010 2:00:14 PM
619 Who eats more 22 03/05/2010 2:00:14 PM
618 Biggest idiot on the site? 31 30/04/2010 2:00:11 PM
617 NBA Playoffs 30 29/04/2010 2:00:15 PM
616 Better at making brackets? 36 27/04/2010 2:00:12 PM
615 User Contest Final 37 26/04/2010 2:00:17 PM
614 Semi-Finals 2: 32 25/04/2010 2:00:21 PM
613 Semi-Finals 1: Are you getting tired of these polls yet? 26 24/04/2010 2:00:16 PM
612 Round 3, Match 4: WAKKA WAKKA WAKKA 29 23/04/2010 2:00:13 PM
611 Round 3: Unbridled Joy vs. Crippling Depression 43 22/04/2010 2:00:10 PM
610 Round 3: A Tale of Two Titans 39 21/04/2010 2:00:18 PM
609 REMATCH. What is this malarkey? 27 20/04/2010 2:00:22 PM
608 Round 3: Pitching for a shutout 42 19/04/2010 2:00:19 PM
607 Sardonic 16: 8 24 18/04/2010 2:00:13 PM
606 Sparkly 16: 7 31 17/04/2010 2:00:22 PM
605 Smelly 16: 6 29 16/04/2010 2:00:23 PM
604 Stinky 16: 5 37 15/04/2010 2:00:19 PM
603 Skinny 16: 4 45 14/04/2010 2:00:18 PM
602 Sticky 16: 3 35 13/04/2010 2:00:21 PM
601 Sour 16: 2 43 12/04/2010 2:00:11 PM
600 Round 2 Begins 40 11/04/2010 2:00:24 PM
599 16 27 10/04/2010 2:00:14 PM
598 15 20 09/04/2010 2:00:14 PM
597 14 31 08/04/2010 2:00:16 PM
596 13 41 07/04/2010 2:00:17 PM
595 12 37 06/04/2010 2:00:17 PM
594 11 29 05/04/2010 2:00:11 PM
593 10 32 04/04/2010 2:00:20 PM
592 9 32 03/04/2010 2:00:17 PM
591 8 37 02/04/2010 2:00:16 PM
590 7 30 01/04/2010 2:00:10 PM
589 6 35 31/03/2010 2:00:17 PM
588 5 37 30/03/2010 2:00:17 PM
587 4 40 29/03/2010 2:00:14 PM
586 3 35 28/03/2010 2:02:22 PM
585 2 39 27/03/2010 2:00:04 PM
584 The Tourney Begins 41 26/03/2010 2:00:04 PM
583 Pre-User contest poll to determine seeding: 35 25/03/2010 2:00:30 PM
582 Your parents have been happily married for many years. You find evidence that your dad is cheating on your mom. You: 23 24/03/2010 2:00:05 PM
581 Battle v2. 22 23/03/2010 2:00:03 PM
580 Battle. 18 22/03/2010 2:00:05 PM
579 One of yours is going to be smashed to a pulp with a hammer. You'd rather it be 25 18/03/2010 2:00:31 PM
578 Scarier 14 17/03/2010 2:00:04 PM
577 Worst pedophile on LUE2? 47 09/03/2010 3:00:06 PM
576 Olympics 33 24/02/2010 3:00:05 PM
575 Which would you rather: 38 13/02/2010 3:00:06 PM
574 New Poll 14 11/02/2010 3:00:06 PM
573 NBC FIGHT 53 15/01/2010 3:00:03 PM
572 Why don't we just change his name to 'cryfista' 42 04/01/2010 3:00:04 PM
571 haifista: Big crybaby or Biggest crybaby? 25 03/01/2010 3:00:04 PM
570 Bigger crybaby on LUE2? 45 24/12/2009 3:00:11 PM
569 When does your holiday break end? 30 23/12/2009 3:00:07 PM
568 Worse user? 37 22/12/2009 3:00:03 PM
567 You are forced to give fellatio to a large ugly man and do not have the option to resist or escape. You will 22 18/12/2009 3:00:06 PM
566 Prefer 37 17/12/2009 3:00:05 PM
565 You have the option of aiming your shit at: 34 15/12/2009 3:00:02 PM
564 User at greatest risk of dying: 51 07/12/2009 3:00:07 PM
563 posting 25 06/12/2009 3:00:04 PM
562 choose 24 05/12/2009 3:00:07 PM
561 Best Coast 43 29/11/2009 3:00:03 PM
560 Potatoes 31 27/11/2009 3:00:06 PM
559 BEST MODERATOR 23 25/11/2009 3:00:05 PM
558 shady's removal from db 32 24/11/2009 3:00:06 PM
557 ATTACK! 40 16/11/2009 3:00:04 PM
556 More awkward in RL social situations? 39 06/11/2009 3:00:06 PM
555 Is it better to have loved and lost, or to fuck a whale? 27 05/11/2009 3:00:05 PM
554 Least likely to procreate? 49 03/11/2009 3:00:14 PM
553 Papsmear Panda: 39 30/10/2009 2:00:04 PM
552 You'd rather stick your penis in: 53 28/10/2009 2:00:37 PM
551 Would you fuck a girl with two heads? 35 27/10/2009 2:00:43 PM
550 19 26/10/2009 2:00:10 PM
549 Candy 54 20/10/2009 2:00:07 PM
548 Bigger disgrace to the human race: 43 19/10/2009 2:00:06 PM
547 Would you like to meet a fellow LUE2ser? 56 14/10/2009 2:00:11 PM
546 You could only have one of these talents. Which would you rather have? 51 10/10/2009 2:00:35 PM
545 Someone shouts in your face, "Everything you know about communism is wrong!" Your reply: 31 09/10/2009 2:00:04 PM
544 Shady Skater's endless trolling: 53 08/10/2009 2:00:12 PM
543 LUE2: A Brighter Future... Today 33 02/10/2009 2:00:06 PM
542 Kudos Economy: -2,769 39 30/09/2009 2:00:05 PM
541 Given the opportunity, I would punch another LUE2ser in the face. 40 29/09/2009 2:00:08 PM
540 Do you hate niggers? 66 27/08/2009 11:52:06 PM
539 Did Shady deserve the suspenderating? 52 19/08/2009 2:00:20 PM
538 Better Secret Menu 28 10/08/2009 2:00:12 PM
537 Shady Skater: Professional cock-rider? 30 08/08/2009 2:00:20 PM
536 Which recently deceased celebrity would you save? 35 07/08/2009 2:00:16 PM
535 Does FU make good topics? 19 06/08/2009 2:00:14 PM
534 [Michael Jackson joke] 53 26/07/2009 2:00:45 PM
533 Do you miss TheCurse? ...Even a little? 22 25/07/2009 2:00:25 PM
532 Do you miss Thrawn? ...Even a little? 28 24/07/2009 2:00:30 PM
531 Do you miss Ugghayo? ...Even a little? 33 23/07/2009 2:00:57 PM
530 Do you miss dwade? ...Even a little? 36 22/07/2009 2:00:31 PM
529 What's more unpleasant to see on a woman? 26 21/07/2009 2:00:16 PM
528 More annoying 40 15/07/2009 2:00:18 PM
527 Worst User Contest: 43 12/07/2009 2:00:25 PM
526 Tastier 41 06/07/2009 2:00:21 PM
525 Michael Vick: Should he be suspended? 41 30/06/2009 2:01:01 PM
524 Given no other choice, you put on your pants/shorts this leg first 41 26/06/2009 2:00:43 PM
523 Who would a moustache make gayer? 41 22/06/2009 2:00:54 PM
522 Does a bear shit in the woods? 34 18/06/2009 2:01:50 PM
521 Better use of electricity 34 16/06/2009 2:00:54 PM
520 Favorite game animal? 36 11/06/2009 2:00:31 PM
519 Scarier to have as a father: 30 07/06/2009 2:00:20 PM
518 So are you Chinese or Japanese? 22 06/06/2009 2:00:45 PM
517 Uglier? 43 04/06/2009 2:00:16 PM
516 What would be worse for you to lose in a fire? 44 01/06/2009 2:00:27 PM
515 More devastating to you: 63 25/05/2009 2:00:26 PM
514 Who would you rather have a father? 39 22/05/2009 2:00:48 PM
513 You need to pee and want to masturbate. 75 11/05/2009 2:00:19 PM
512 Would you rather 48 08/05/2009 2:00:54 PM
511 Kudo's worst referral was... 55 05/05/2009 2:00:58 PM
510 B-list celebrity analogue to recent polls: Prefer sex with 25 04/05/2009 2:00:54 PM
509 All right, you Vascor-lovers. Do you think Vascor is a better 36 03/05/2009 2:00:17 PM
508 The most recent polls have been 29 02/05/2009 2:00:29 PM
507 Just to continue the disturbing trend, you'd rather put your penis in 34 01/05/2009 2:00:44 PM
506 In the obvious followup to yesterday's poll, you'd rather be sodomized by 34 30/04/2009 2:01:00 PM
505 WHORE FIGHT (Who'd you rather bone?) 48 29/04/2009 2:00:23 PM
504 Nonbinding Resolution 01: 45 28/04/2009 2:00:18 PM
503 Crueler life: world without 37 27/04/2009 2:00:23 PM
502 Who would you rather sleep with? 26 26/04/2009 2:00:22 PM
501 Who would win in a game of Parcheesi? 22 25/04/2009 2:00:52 PM
500 Who would win in a fight? 40 24/04/2009 2:01:27 PM
499 Which would you rather have? 55 23/04/2009 2:00:45 PM
498 Best weapon? 45 22/04/2009 2:00:42 PM
497 Best power? 43 21/04/2009 2:00:38 PM
496 Most disgraceful? 50 20/04/2009 2:00:40 PM
495 Who wins? v3 22 19/04/2009 2:00:42 PM
494 Who wins? v2 31 18/04/2009 2:01:26 PM
493 Who wins? v1 23 17/04/2009 2:00:28 PM
492 and here's one 24 16/04/2009 2:02:05 PM
491 SPORTS LOL 39 15/04/2009 2:01:31 PM
490 Best Luigiman alt? 43 14/04/2009 2:01:07 PM
489 Hear Ye! Hear Ye! 41 13/04/2009 2:01:14 PM
488 Holy shit, I forgot we had a poll 58 08/04/2009 2:00:45 PM
487 You have toast. First thing you reach for is 68 31/03/2009 2:00:43 PM
486 Which did you play the most? 74 15/03/2009 2:00:47 PM
485 Better moustache: 44 12/03/2009 2:01:23 PM
484 C) Kill yourself 63 04/03/2009 3:00:37 PM
483 More annoying 38 01/03/2009 3:01:12 PM
482 I like big butts and I cannot lie 55 20/02/2009 3:01:07 PM
481 The Best Moderator Is... 16 19/02/2009 3:00:44 PM
480 Is Kudo gay? 43 17/02/2009 3:00:27 PM
479 Valentines Day. Could you feel the love that night? 31 16/02/2009 3:00:30 PM
478 Showers- When do you take em? 64 13/02/2009 3:01:28 PM
477 Who's the real king of Never Giving You Up? 29 12/02/2009 3:00:57 PM
476 Orange Juice 38 11/02/2009 3:00:52 PM
475 Where is your computer located? 81 05/02/2009 3:00:43 PM
474 Most preferred breast geometry: 45 03/02/2009 3:01:21 PM
473 Should Kudo put Safety Man on KoS? 57 27/01/2009 3:00:49 PM
472 Sup? 38 25/01/2009 3:01:15 PM
471 What's more satisfying: 63 22/01/2009 3:01:19 PM
470 The single most pitiful election ever. (OFFICIAL. THAT MEANS YOU, LUIGIMAN) 50 20/01/2009 3:00:41 PM
469 You'd rather eat animal 45 16/01/2009 3:00:43 PM
468 The long overdue... LUE2 PRESIDENTIAL ELECTIONS 63 14/01/2009 3:00:56 PM
467 HOLY SHIT WE NEED A NEW POLL AND THERE'S LESS THAN A MINUTE LEFT TO ENTER ONE 44 12/01/2009 3:00:40 PM
466 Best Back to the Future... 43 08/01/2009 3:03:43 PM
465 If you can even remember: 32 07/01/2009 3:00:44 PM
464 Look, a reasonably-sized poll 29 06/01/2009 3:00:31 PM
463 War was the most badass in... 52 05/01/2009 3:00:48 PM
462 King Kudo II (52) 1486 04/01/2009 3:00:59 PM
461 Most delicious Mexican pastry? 38 02/01/2009 3:01:15 PM
460 In favor of or opposed to the +/- system? 105 01/01/2009 3:01:20 PM
459 +/- system 54 31/12/2008 3:00:30 PM
458 How was your Christmas? 49 25/12/2008 3:00:50 PM
457 You REALLY have to take a shit, but a bathroom is nowhere to be found for miles. You: 47 23/12/2008 3:00:49 PM
456 The bread heel 30 22/12/2008 3:00:47 PM
455 Condition Clear - There aren't any polls in queue, please add one 29 21/12/2008 3:00:52 PM
454 Harder to find 68 08/12/2008 3:00:43 PM
453 Prefer 61 01/12/2008 3:00:32 PM
452 hi. 71 21/11/2008 10:40:43 AM
451 Heil Inty? 46 21/11/2008 4:34:13 AM
450 Good user contest? 32 20/11/2008 3:01:05 PM
449 ULTIMATE DEATH BATTLE TO THE DEATH KILLING: A new challenger appears! 54 19/11/2008 3:00:33 PM
448 Game 31 - FINAL 57 18/11/2008 3:00:41 PM
447 Game 30 - Rematch 56 17/11/2008 3:00:33 PM
446 I'm not going to be here at 9pm, so here's a hold-over poll. 58 16/11/2008 3:00:37 PM
445 Game 30 56 15/11/2008 3:01:00 PM
444 Game 29 - holy shit I'm an idiot - THIS is the Semis 46 14/11/2008 3:00:29 PM
443 Game 28 47 13/11/2008 3:00:36 PM
442 Game 27 - FUCK! 54 12/11/2008 3:00:39 PM
441 Game 26 - my lovers 49 11/11/2008 3:00:48 PM
440 Game 25 - Start of the Semifinals 51 10/11/2008 3:00:32 PM
439 Game 24 - a Cinderella story 48 09/11/2008 3:00:28 PM
438 Game 23-- I didn't eff it up this time, jim4k. But Duffman will. 51 08/11/2008 3:00:34 PM
437 Game 22 52 07/11/2008 3:00:24 PM
436 Game 21-- FUCK, I LOL'D 55 06/11/2008 3:00:49 PM
435 Game 20 41 05/11/2008 3:00:35 PM
434 Game 19 55 04/11/2008 3:00:30 PM
433 Game 18 51 03/11/2008 3:00:37 PM
432 Game 17 36 02/11/2008 2:00:23 PM
431 We interrupt this tournament to bring you an impor- 44 01/11/2008 2:00:29 PM
430 Game 16 54 31/10/2008 2:00:46 PM
429 Game 15 48 30/10/2008 2:00:26 PM
428 Game 14 - sry my bad guyz i fukked up 49 29/10/2008 2:00:39 PM
427 Game 14 49 28/10/2008 2:00:22 PM
426 Game 13 62 27/10/2008 2:00:59 PM
425 Game 12 42 26/10/2008 2:00:34 PM
424 Game 11 57 25/10/2008 2:00:36 PM
423 Game 10: Holy shit, I'd rather vote Republican. Or Green. Or Peace & Freedom. Or... 43 24/10/2008 2:02:39 PM
422 Game 9 59 23/10/2008 2:00:31 PM
421 Game 8 70 22/10/2008 2:00:37 PM
420 Game 7 51 21/10/2008 2:01:31 PM
419 Game 6 54 20/10/2008 2:01:13 PM
418 Game 5 53 19/10/2008 2:00:56 PM
417 Game 4 50 18/10/2008 2:00:36 PM
416 Game 3 62 17/10/2008 2:00:19 PM
415 Game 2 51 16/10/2008 2:00:36 PM
414 Holy shit another User Contest. Game 1. 48 15/10/2008 2:01:25 PM
413 Do you like eating the last few salty fragments and crumbs at the bottom of a bag of chips? 60 12/10/2008 2:01:20 PM
412 Which LUE2ism did you like more? 52 08/10/2008 2:00:28 PM
411 Which would look funnier if hung from a gallows? 36 07/10/2008 2:00:55 PM
410 Which music genre is better: 58 06/10/2008 2:00:42 PM
409 MODERATOR APPROVAL RATINGS: Brossman 34 05/10/2008 2:00:45 PM
408 MODERATOR APPROVAL RATINGS: CleverConveyence 44 04/10/2008 2:00:36 PM
407 MODERATOR APPROVAL RATINGS: Gaussian Elimination 39 03/10/2008 2:00:43 PM
406 MODERATOR APPROVAL RATINGS: thecoolestchris 39 02/10/2008 2:00:20 PM
405 MODERATOR APPROVAL RATINGS: Shattered Soul 40 01/10/2008 2:00:26 PM
404 Who wears short shorts? 46 30/09/2008 2:00:30 PM
403 Should we change the poll? 30 29/09/2008 2:00:48 PM
402 Sky 53 24/09/2008 2:00:40 PM
401 The admins of LUE2: 44 19/09/2008 2:00:21 PM
400 There is a giant container full of liquid in your kitchen. You hope it's 65 08/09/2008 2:00:32 PM
399 How are you today? 60 04/09/2008 2:00:28 PM
398 On the count of three: 1, 2, ...3! 33 03/09/2008 2:00:39 PM
397 Who do you hate more? 30 02/09/2008 2:00:32 PM
396 YO DAWG, I WANT YOU TO PIMP MY ____ 43 31/08/2008 2:00:47 PM
395 Gnrrr 26 30/08/2008 2:00:32 PM
394 By voting in this poll, you thereby acknowledge that you are a homosexual: 47 22/08/2008 2:00:23 PM
393 LUE2 Approval Ratings: 33 21/08/2008 2:01:22 PM
392 It feels better to take which piss? First one after 71 14/08/2008 2:01:08 PM
391 Brett Favre 40 12/08/2008 2:01:30 PM
390 Should a high-profile star in the Olympics speak out against China?-- i.e. Darfur 52 09/08/2008 2:00:40 PM
389 Who wins in a fight? 26 08/08/2008 2:00:38 PM
388 Eat 29 07/08/2008 2:01:06 PM
387 If you had to live in one of these climates, you'd prefer it to be 56 05/08/2008 2:00:30 PM
386 Your thoughts on e-love: Yes or No? 65 03/08/2008 2:01:01 PM
385 The road to nobility was never an easy one. LUE2's official princess: 91 30/07/2008 2:01:41 PM
384 Consolation prize: LUE2 princess? 52 29/07/2008 2:00:20 PM
383 The monarchy with be a democratic process. LUE2's queen: 59 28/07/2008 2:01:23 PM
382 Would you take a baseball bat to the crotch to have sexual relations with the LUE2 staff? 45 24/07/2008 2:00:27 PM
381 Would you take a baseball bat to the crotch to have sexual relations with Jessica Alba, Angelina Jolie, Scarlett Johansson, etc? 58 23/07/2008 2:00:43 PM
380 Worse way to get dumped? 46 22/07/2008 2:00:48 PM
379 More disgusting? 44 21/07/2008 2:02:08 PM
378 Foreign girls are sexy, yes? 49 19/07/2008 2:00:27 PM
377 The U.S. is merging with another country. You prefer it to be: 48 17/07/2008 2:00:21 PM
376 Your dog has agonizingly painful terminal cancer. Can you shoot him/her? 60 12/07/2008 2:00:44 PM
375 Fact or fiction: The black population, on average, has a larger erect penis than the rest of the world. 56 10/07/2008 2:01:05 PM
374 What smells nicer? 37 09/07/2008 2:00:50 PM
373 If you could get away with murder, would you do it? 40 08/07/2008 2:00:36 PM
372 More embarrassing to have a pimple on your 57 05/07/2008 2:00:33 PM
371 Androids dream of electric 28 04/07/2008 2:01:10 PM
370 Would you ever consider a robot as a lifelong female companion, should they be invented? 52 02/07/2008 2:01:05 PM
369 Better Ice Cream Flavor: 34 01/07/2008 2:00:30 PM
368 There is something that upsets you. That means you are: 31 30/06/2008 2:01:47 PM
367 You bump into someone by accident on the street. You 50 28/06/2008 2:00:40 PM
366 You'd rather fight off a rabid 47 26/06/2008 2:01:33 PM
365 You've just been severely burned on over 90% of your body. Continue life support? 71 23/06/2008 2:01:47 PM
364 Worse place to be imprisoned: 42 19/06/2008 2:00:50 PM
363 Chooooooooooose 35 18/06/2008 2:00:33 PM
362 Greater offense to nature: 46 17/06/2008 2:00:45 PM
361 Your father: 59 15/06/2008 2:01:01 PM
360 Bigger offense to the senses: 60 12/06/2008 2:00:47 PM
359 It'd be worse to have your ___ plugged with tar 58 09/06/2008 2:00:45 PM
358 OMG STRESSFUL TEST QUESTION YOU DON'T KNOW THE ANSWER TO!!! You pick option: 56 08/06/2008 2:00:39 PM
357 The +/- system: 52 07/06/2008 2:02:22 PM
356 Throw _____ down the well 40 06/06/2008 2:00:39 PM
355 Luigiman 51 05/06/2008 2:01:19 PM
354 Antisocial people: 54 04/06/2008 2:00:51 PM
353 Self-poll, OLO: 44 03/06/2008 2:00:28 PM
352 Best current gen system? 57 01/06/2008 2:01:17 PM
351 Rubik's cubes: 48 30/05/2008 2:01:10 PM
350 LUE2: 68 27/05/2008 2:00:32 PM
349 Who's the man? 37 26/05/2008 2:00:39 PM
348 Did you lose your virginity in high school? 42 25/05/2008 2:00:46 PM
347 Star 42 24/05/2008 2:01:15 PM
346 Which is better 71 21/05/2008 2:00:33 PM
345 Harder to live with: 55 19/05/2008 2:01:03 PM
344 You only have one bullet. Aim for the 36 18/05/2008 2:01:02 PM
343 You would rather be: 43 17/05/2008 2:00:32 PM
342 haifista's numerous anime picture topics: 47 16/05/2008 2:00:45 PM
341 Me on the 55 13/05/2008 2:01:14 PM
340 Be honest: do you pick your nose? 72 10/05/2008 2:00:41 PM
339 Do you have wisdom teeth still? 55 08/05/2008 2:00:53 PM
338 Spoilers without warning: A bannable offense? 37 06/05/2008 2:00:44 PM
337 I used to try so hard to think of good polls. 42 05/05/2008 2:00:27 PM
336 Trapped on an island. Of the following, you'd prefer 31 04/05/2008 2:00:34 PM
335 If you had to place money on a cage fight, who would you bet on to win? 38 03/05/2008 2:00:32 PM
334 Scarier job to have? 44 02/05/2008 2:00:21 PM
333 The suspension for the GTAIV spoiler was 50 01/05/2008 2:00:26 PM
332 Who would win in a fight? 52 30/04/2008 2:00:30 PM
331 Handedness (there's no option for Both because we don't take kindly to freaks.) 57 29/04/2008 2:00:20 PM
330 Preferred ovoid candy (any variant): 62 25/04/2008 2:00:27 PM
329 Take a look at your hands. Your ring finger is 69 20/04/2008 2:00:20 PM
328 Who cares if we "torture" terrorists? 58 18/04/2008 2:00:16 PM
327 Favorite Nerf ammo 45 17/04/2008 2:00:19 PM
326 You'd prefer your personal army to be: 48 14/04/2008 2:00:21 PM
325 Chill or Fever 35 13/04/2008 2:00:15 PM
324 Do you remember why the Landfill's board number is 2184? 37 12/04/2008 2:00:19 PM
323 What's better 38 11/04/2008 2:00:25 PM
322 What sucks more: 42 10/04/2008 2:00:15 PM
321 Classier: 45 08/04/2008 2:00:17 PM
320 Your stove of choice is 41 07/04/2008 2:00:19 PM
319 How secure is your password on this site? 61 04/04/2008 2:00:22 PM
318 MAN LEBU 33 03/04/2008 2:00:24 PM
317 BAN LEMU 57 01/04/2008 2:00:26 PM
316 Better lovin' music 43 27/03/2008 2:00:15 PM
315 Your girlfriend has to have an uncontrollable secretion problem. You'd prefer it to be 59 24/03/2008 2:01:00 PM
314 You'd prefer your Spring Break: 47 22/03/2008 2:00:54 PM
313 Better "finisher" 37 21/03/2008 2:00:26 PM
312 You'd rather get to 47 20/03/2008 2:00:41 PM
311 Which U.S. Operation has seen the least amount of success? 34 19/03/2008 2:00:27 PM
310 Let's see what you know about politics & the world, LUE2. The U.S. and Iraq: 56 18/03/2008 2:00:24 PM
309 Which is better: 48 17/03/2008 2:00:28 PM
308 What'd be worse to live with? 35 16/03/2008 2:00:25 PM
307 Which is the bigger problem currently facing LUE2? -- Think hard about this one: 35 15/03/2008 2:00:23 PM
306 Battle. 44 14/03/2008 2:00:23 PM
305 Internet History: Have you ever gone to a seemingly innocent website when you were little only to discover it was a porn site? 40 13/03/2008 2:01:03 PM
304 Internet History: Have you ever been freaked out by those 'Windows has performed an illegal operation and will now be shut down' error messages? 43 12/03/2008 2:00:06 PM
303 Internet History: Have you ever entered a chat room when you were little and pretended to be older than you really were? 50 11/03/2008 2:00:28 PM
302 The error messages atop the site 38 10/03/2008 2:00:16 PM
301 What's worse? 62 07/03/2008 3:00:27 PM
300 More unpleasant in your eyes? 42 06/03/2008 3:00:17 PM
299 More unpleasant in your eyes? 47 05/03/2008 3:00:34 PM
298 You'd rather be a prisoner of war in: 43 04/03/2008 3:00:20 PM
297 Which world would be harder to live in? 59 03/03/2008 3:00:20 PM
296 Now which would you rather have: 65 29/02/2008 3:00:30 PM
295 What's better to have: 62 27/02/2008 3:00:22 PM
294 You would rather 45 26/02/2008 3:00:32 PM
293 Estimate the number of days until the staff puts up a new poll: 48 25/02/2008 3:00:14 PM
292 You would rather be: 54 24/02/2008 3:00:21 PM
291 Which of these boards has nastier content: 34 23/02/2008 3:00:23 PM
290 Best (non-burger) fast food chain? 71 21/02/2008 3:00:24 PM
289 You'd rather be incredibly 47 20/02/2008 3:00:27 PM
288 You'd rather live in an extremely ____ climate. 45 19/02/2008 3:00:28 PM
287 You'd rather have a broken 45 18/02/2008 3:00:28 PM
286 Was haifista a better poster back in the early days of LUE2? 64 15/02/2008 3:00:20 PM
285 Parental status: 62 14/02/2008 3:00:27 PM
284 Would you rather: 62 13/02/2008 3:00:24 PM
283 Are you right-handed or left-handed? 51 12/02/2008 3:00:16 PM
282 Cooler: 49 08/02/2008 3:00:15 PM
281 It'd be worse to be: 27 07/02/2008 3:00:20 PM
280 Would you trade a kidney, significantly shortening your lifespan, for the true love of your life? 46 06/02/2008 3:00:14 PM
279 Would you trade a kidney, significantly shortening your lifespan, for a supermodel wife? 52 05/02/2008 3:00:23 PM
278 Best old school Legos 48 04/02/2008 3:00:19 PM
277 Gamers of LUE2: 53 03/02/2008 3:00:16 PM
276 Who likes anal more: 40 02/02/2008 3:00:17 PM
275 You would rather be a Big... 57 31/01/2008 3:00:24 PM
274 Face-off: 58 30/01/2008 3:00:15 PM
273 Have you gotten sick yet this winter? 49 28/01/2008 3:00:18 PM
272 Oh no, all the women left in your world are asymmetric! You pick the one with 59 23/01/2008 3:00:17 PM
271 You now live atop a 200-foot tall, circular tower. You'd rather have: 67 19/01/2008 3:00:22 PM
270 Do you feel like you're getting older, or is today just another day? 43 18/01/2008 3:00:12 PM
269 Which word is more funny? 59 11/01/2008 3:00:17 PM
268 Do you have any dirty little fantasies on someone you know as a friend who's completely unaware of your perverse thoughts? 42 10/01/2008 3:00:18 PM
267 Do you care about all this shit happening in Iowa and New Hampshire 40 09/01/2008 3:00:20 PM
266 what 38 08/01/2008 3:00:25 PM
265 No stickies are present on the main board. You 47 06/01/2008 3:00:26 PM
264 Best part about caucuses? 42 05/01/2008 3:00:23 PM
263 Grocery bags 25 04/01/2008 3:00:21 PM
262 For your New Year's Resolution, the area you'd most like to improve upon is: 59 01/01/2008 3:00:51 PM
261 Best Street Fighter Character: 42 31/12/2007 3:01:01 PM
260 You live alone, and it's dark. You'd rather go to 41 29/12/2007 3:00:47 PM
259 You'd rather be a: 34 28/12/2007 3:00:52 PM
258 Can you speak more than one language? 36 27/12/2007 3:00:53 PM
257 How was your Christmas? 44 26/12/2007 3:00:49 PM
256 How long is your hair? 58 24/12/2007 3:00:54 PM
255 You would rather be able to dislocate your 26 23/12/2007 3:01:04 PM
254 In terms of the weather, you prefer it to be 35 22/12/2007 3:00:55 PM
253 Classic. It's better for your sexual partner to have 37 21/12/2007 3:00:52 PM
252 What's worse: 36 20/12/2007 3:00:48 PM
251 Who thinks they can make better polls than the crap we've had lately (the past week or so)? 39 19/12/2007 3:00:50 PM
250 How are you today? 50 18/12/2007 3:00:49 PM
249 Which would you rather have: 58 17/12/2007 3:02:07 PM
248 Sometimes I make polls with such difficult decisions, that I don't vote because I can't decide 43 16/12/2007 3:00:53 PM
247 You only get to punch one person in the face. You use this opportunity to hit 32 15/12/2007 3:00:45 PM
246 Gayest bird? 38 14/12/2007 3:00:47 PM
245 Which is more important to you: 45 13/12/2007 3:00:45 PM
244 A hot foreign exchange student has moved into your house. She is... 50 12/12/2007 3:00:52 PM
243 Prison Pals: Who would you rather have as your cellmate while you serve your life sentence? 52 11/12/2007 3:00:44 PM
242 You go as 53 06/12/2007 3:00:41 PM
241 You go as 38 02/12/2007 3:00:40 PM
240 Young man, what do your parents think of your daily shenanigans? My parents are... 42 01/12/2007 3:00:47 PM
239 Epic battle 39 30/11/2007 3:00:51 PM
238 Best goddamn Coke product: 50 29/11/2007 3:01:30 PM
237 This year, you preferred your 37 28/11/2007 3:01:33 PM
236 Rather eat the 55 26/11/2007 3:00:33 PM
235 Which is better: 57 23/11/2007 3:00:58 PM
234 Like better? 37 22/11/2007 3:00:38 PM
233 When you think "Brossman," you think 38 20/11/2007 3:00:42 PM
232 When you think "Gaussian Elimination," you think 32 19/11/2007 3:00:38 PM
231 When you think "CleverConveyence," you think 30 18/11/2007 3:00:49 PM
230 When people say "nice haircut", are they saying it because: 44 17/11/2007 3:02:04 PM
229 Which is more morally horrifying: 45 16/11/2007 3:00:46 PM
228 How's life, everyone? 49 15/11/2007 3:00:45 PM
227 Where the hell has Thrawn been? 38 14/11/2007 3:00:57 PM
226 Where the hell has CC been? 40 13/11/2007 3:01:00 PM
225 Best science field: 38 12/11/2007 3:00:49 PM
224 Public defecation: 60 08/11/2007 3:00:59 PM
223 Poll of the Day 44 07/11/2007 3:00:40 PM
222 Best one: 51 05/11/2007 3:00:48 PM
221 53 04/11/2007 2:00:48 PM
220 Who wins this fight: 45 01/11/2007 2:01:04 PM
219 What's scarier: 48 31/10/2007 2:00:50 PM
218 Who wins in an unarmed fight? 33 30/10/2007 2:01:05 PM
217 You'd rather eat 33 29/10/2007 2:01:02 PM
216 Your eyes have been taped open in a well-lit room. You would rather 57 28/10/2007 2:00:56 PM
215 Which would you rather do: 52 27/10/2007 2:01:15 PM
214 How do you read "LOL" -- if you had to say it out loud, it'd be read as: 55 26/10/2007 2:00:43 PM
213 Most redundant letter for the English language: 49 25/10/2007 2:00:47 PM
212 HEIMDALL is an unstoppable beast. Can the blank option prove to be too much for the mighty one? 63 24/10/2007 2:00:46 PM
211 Anyone who votes the blank option is gay/stupid/generic insult/etc: 56 23/10/2007 2:00:55 PM
210 I like my polls with 45 22/10/2007 2:00:55 PM
209 If you could magically learn another language overnight, it'd be: 63 21/10/2007 2:00:52 PM
208 Do you have a job? 51 20/10/2007 2:01:01 PM
207 You enjoy Ninja Turtles best as: 43 19/10/2007 2:01:01 PM
206 You predict that 10 years from now, there will be a greater number of people 52 18/10/2007 8:01:03 AM
205 Purely hypothetical question here, but if Thrawn suddenly came back, you'd want him: 49 17/10/2007 2:00:47 PM
204 Which would you rather be: 46 16/10/2007 2:00:48 PM
203 Best Girl Scout Cookie: 52 15/10/2007 2:00:55 PM
202 You're eating you some goshdarn chocolate. It's 55 14/10/2007 2:00:39 PM
201 Windows Vista 43 13/10/2007 2:00:38 PM
200 Just checked: Robert Jordan is still dead. 40 12/10/2007 2:00:47 PM
199 Most enjoyable instrument for playing videogames with: 49 11/10/2007 2:00:45 PM
198 Best Military Branch 42 10/10/2007 2:00:47 PM
197 What do you primarily drink through the day? 62 09/10/2007 2:00:44 PM
196 Your life becomes some manner of performance art for a day. In fact it's 46 08/10/2007 2:00:48 PM
195 You're forced to have gay sex with one of the following Star Wars actors. You pick 40 07/10/2007 2:01:05 PM
194 Illegal drugs. How often do you do them? 65 06/10/2007 2:00:39 PM
193 You are given the choice to eliminate one group from earth. You choose... 72 05/10/2007 2:00:44 PM
192 Comedians. 51 04/10/2007 2:00:42 PM
191 Please select your highest level of education COMPLETED: 70 03/10/2007 2:00:46 PM
190 Your one and only child is born a hermaphrodite. The doctor says surgery won't be difficult. 60 02/10/2007 2:00:46 PM
189 Do you like the people you work with? 59 01/10/2007 2:00:59 PM
188 ATTN: Halo enthusiasts 51 30/09/2007 2:00:36 PM
187 Favorite subject. 49 29/09/2007 2:00:37 PM
186 Cars. If you could have any car you wanted, it'd be a... 54 28/09/2007 2:00:55 PM
185 Childhood years. 50 27/09/2007 2:00:43 PM
184 Compare the color of your lips and penis head. Your lips are 38 26/09/2007 2:00:42 PM
183 An angry aging woman is charging your naked body while wearing a strap on. You pray that it's no worse than 42 25/09/2007 2:00:53 PM
182 You walk in on your glorious wife (or spouse) of many years sleeping with another man. Who do you kill first? 53 24/09/2007 2:00:35 PM
181 You connect to the internet with: 60 23/09/2007 2:00:42 PM
180 What is your favorite number? 49 22/09/2007 2:00:43 PM
179 Do you think people more frequently vote for the first option in the poll? 50 21/09/2007 2:00:34 PM
178 If you could live on any continent you wanted, you'd live on: 57 20/09/2007 2:00:40 PM
177 Are you more of a: 53 19/09/2007 2:00:45 PM
176 An angry angry shaman lays a curse upon you, preventing you from ever eating meat again. You 64 18/09/2007 2:00:41 PM
175 The most important issue to you in the 2008 election: 59 17/09/2007 2:00:52 PM
174 The appearance of your ___ is most important to you. 58 16/09/2007 2:00:43 PM
173 Who do you think is the Feces-Eating Hobo? 49 15/09/2007 2:00:56 PM
172 Match 64: a challenger appears. Who is this mystery man? 66 14/09/2007 2:00:49 PM
171 Match 63 - finals 70 13/09/2007 2:00:49 PM
170 Match 62 - semifinals 70 12/09/2007 2:00:48 PM
169 Match 61 - semifinals 55 11/09/2007 2:00:50 PM
168 Match 60 53 10/09/2007 2:00:54 PM
167 Match 59, asterisks ahoy, OLO 65 09/09/2007 2:00:52 PM
166 Match 58 57 08/09/2007 2:00:51 PM
165 Match 57 56 07/09/2007 2:01:16 PM
164 Match 56 73 06/09/2007 2:00:52 PM
163 Match 55 56 05/09/2007 2:00:53 PM
162 Match 54, keep the cheating to a minimum Luigi, plzkthx 91 04/09/2007 2:00:43 PM
161 Match 53 46 03/09/2007 2:00:41 PM
160 Match 52 35 02/09/2007 2:01:05 PM
159 Match 51 45 01/09/2007 2:00:50 PM
158 Match 50 58 31/08/2007 2:00:37 PM
157 Match 49 48 30/08/2007 2:00:45 PM
156 Match 48 63 29/08/2007 2:00:45 PM
155 Match 47 54 28/08/2007 2:01:00 PM
154 Match 46 53 27/08/2007 2:00:56 PM
153 Match 45 59 26/08/2007 2:00:38 PM
152 Match 44, I'll kill you effin' cheaters 58 25/08/2007 2:00:35 PM
151 Match 43 50 24/08/2007 2:00:45 PM
150 Match 42 56 23/08/2007 2:00:56 PM
149 Match 41 61 22/08/2007 2:00:47 PM
148 Match 40 75 19/08/2007 2:00:54 PM
147 Match 39 54 18/08/2007 2:00:57 PM
146 Match 38 58 17/08/2007 2:01:04 PM
145 Match 37 55 16/08/2007 2:01:22 PM
144 Match 36 54 15/08/2007 2:00:43 PM
143 Match 35 59 14/08/2007 2:01:00 PM
142 Match 34 59 13/08/2007 2:00:38 PM
141 Match 33 60 12/08/2007 2:00:39 PM
140 Match 30 Rematch 44 11/08/2007 2:00:35 PM
139 Match 32 55 10/08/2007 2:00:32 PM
138 Match 31 53 09/08/2007 2:00:34 PM
137 Match 30 56 08/08/2007 2:00:46 PM
136 Match 29 landslide 62 07/08/2007 2:00:30 PM
135 Match 28 52 06/08/2007 2:00:48 PM
134 Match 27 60 05/08/2007 2:00:35 PM
133 Match 26 48 04/08/2007 2:00:54 PM
132 Match 25 61 03/08/2007 2:00:46 PM
131 Match 24 67 02/08/2007 2:00:47 PM
130 Match 23 51 01/08/2007 2:01:08 PM
129 Match 22 50 31/07/2007 2:00:28 PM
128 Match 21 54 30/07/2007 2:00:32 PM
127 Match 20 54 29/07/2007 2:00:40 PM
126 Match 19 52 28/07/2007 2:00:30 PM
125 Match 18 51 27/07/2007 2:00:33 PM
124 Match 17 49 26/07/2007 2:00:35 PM
123 Match 16 pwnage 45 25/07/2007 2:00:32 PM
122 Match 15 44 24/07/2007 2:00:44 PM
121 Match 14 57 23/07/2007 2:00:56 PM
120 Match 13 56 22/07/2007 2:00:33 PM
119 Match 12 46 21/07/2007 2:00:33 PM
118 Match 11 raep 65 20/07/2007 2:00:49 PM
117 Match 10 60 19/07/2007 2:01:03 PM
116 Match 9 73 18/07/2007 2:00:37 PM
115 Match 8 54 17/07/2007 2:00:42 PM
114 Match 7 53 16/07/2007 2:00:45 PM
113 Match 6 59 14/07/2007 2:00:40 PM
112 Match 5 59 13/07/2007 2:00:46 PM
111 Match 4 59 12/07/2007 2:00:44 PM
110 Match 3 58 11/07/2007 2:00:37 PM
109 Match 2 57 10/07/2007 2:00:36 PM
108 USER CONTEST!?!? 60 09/07/2007 2:00:32 PM
107 Best show? 56 08/07/2007 2:00:39 PM
106 Bigger junkie? 35 06/07/2007 2:00:39 PM
105 Better Optimus Prime: 41 05/07/2007 2:00:34 PM
104 Best video game genre: 49 04/07/2007 2:00:50 PM
103 Best pet: 58 03/07/2007 2:00:38 PM
102 Favorite time-piece style: 45 02/07/2007 2:00:48 PM
101 Favorite flavor? 48 01/07/2007 2:00:40 PM
100 You know you played it. Which Pokemon version is better? 53 30/06/2007 2:01:06 PM
99 Winner of a three-way fight: 37 29/06/2007 2:00:58 PM
98 Hottest girl (or boy, OLO) is on your bed. She is... 87 26/06/2007 2:00:50 PM
97 So... 44 25/06/2007 2:00:48 PM
96 Got a PS3? 59 24/06/2007 2:00:39 PM
95 Got a Wii? 53 23/06/2007 2:00:41 PM
94 Got a 360? 56 22/06/2007 2:00:52 PM
93 Your worst dealings with the law: 86 20/06/2007 2:00:55 PM
92 Your force is... 44 19/06/2007 2:01:05 PM
91 Preferred medium of entertainment? 45 18/06/2007 2:00:59 PM
90 Should Ugg be b7? 68 16/06/2007 2:00:43 PM
89 Best pizza? 70 15/06/2007 2:00:37 PM
88 Most dangerous job to have? 62 14/06/2007 2:00:59 PM
87 If your kid could have one gift, it'd be: 59 13/06/2007 2:00:42 PM
86 You spot a coin on the ground. The smallest coin you'd pick up is... 68 12/06/2007 2:01:13 PM
85 Which would be more shameful? 80 10/06/2007 2:00:40 PM
84 Crappy Users. You make fun of them because... 55 09/06/2007 2:00:33 PM
83 So who IS a virgin here? O_o 68 08/06/2007 2:00:35 PM
82 Would Kudo make a good moderator? 65 07/06/2007 2:00:40 PM
81 Best LUE2 Admin 74 06/06/2007 2:00:24 PM
80 Cookie 40 05/06/2007 2:00:36 PM
79 Son of a bitch, who forgot to update the poll? 47 04/06/2007 2:00:31 PM
78 Console War 60 02/06/2007 2:00:35 PM
77 Nail gun accident! It went right through your 50 01/06/2007 2:00:36 PM
76 You have to kill someone. It most likely would be... 72 30/05/2007 2:00:30 PM
75 NBA Champ for 2007 will be... 34 28/05/2007 2:00:32 PM
74 Who do you root for? 35 27/05/2007 2:00:33 PM
73 Who wins the Wilder West? 37 26/05/2007 2:00:30 PM
72 Best sport to watch? 46 25/05/2007 2:00:25 PM
71 Best: 39 24/05/2007 2:00:22 PM
70 Ever been at-fault in a car accident? 55 23/05/2007 2:00:32 PM
69 Do you consider yourself as having a social life? 59 22/05/2007 2:00:24 PM
68 Catchier song in spite of the fruitiness? 42 21/05/2007 2:00:38 PM
67 Best toothpaste flavor: 54 20/05/2007 2:00:29 PM
66 Best toroidal food 46 19/05/2007 2:00:30 PM
65 People who vote the blank option are heterosexual: 46 18/05/2007 2:00:26 PM
64 You're in a prison. It's because you 65 17/05/2007 2:00:24 PM
63 Pick your poison: 64 16/05/2007 2:00:32 PM
62 You're stranded on an island. You need food, so you: 58 15/05/2007 2:00:27 PM
61 Who wins in a fight? 55 14/05/2007 2:00:39 PM
60 You're a celebrity. You'll 41 13/05/2007 2:00:29 PM
59 Ice Cream Battle! 40 12/05/2007 2:00:32 PM
58 I'm an artist, I use 44 11/05/2007 2:00:23 PM
57 I believe random lyrics posts/topics... 69 10/05/2007 2:00:31 PM
56 Do you still live with your parents? 63 09/05/2007 2:00:33 PM
55 Do you think "being a crappy user" a good enough reason for bannings or suspensions? 54 08/05/2007 2:00:44 PM
54 Given 24 hours to prepare, who wins a deadly night fight? 41 07/05/2007 2:00:26 PM
53 LEU2's Golden Age? 69 06/05/2007 2:00:29 PM
52 Which is more aggravating to see a white boy absorbed in? 45 05/05/2007 2:00:36 PM
51 17 04/05/2007 2:00:37 PM
50 Monkey knife fight to the death. Winner: 39 03/05/2007 2:00:32 PM
49 Who deserved to win the battle in the kitchen? 20 02/05/2007 2:02:12 PM
48 Classic Battle: 55 01/05/2007 2:00:40 PM
47 Best way to end a story: 43 30/04/2007 2:00:28 PM
46 What's the worst? 55 29/04/2007 2:00:22 PM
45 Sheryl Crow's global warming advice: 1 toilet paper square per bathroom visit? 45 28/04/2007 2:00:31 PM
44 Your infant son needs a babysitter. You can only pick from the following: 31 27/04/2007 2:00:25 PM
43 I am: 48 26/04/2007 2:00:36 PM
42 Toilet's clogged. Pee in the 48 25/04/2007 2:00:38 PM
41 Best gourmet soda? 53 24/04/2007 2:00:27 PM
40 First one you picked 57 23/04/2007 2:00:37 PM
39 Phil Collins 42 22/04/2007 2:00:32 PM
38 Since you people don't like sports, what do you like? 35 21/04/2007 2:00:32 PM
37 First pick in the Draft: 42 20/04/2007 2:00:25 PM
36 Crap Poll #45 31 19/04/2007 2:00:23 PM
35 Go! 37 18/04/2007 2:00:33 PM
34 Root Beer 39 17/04/2007 2:00:38 PM
33 Coke vs. Pepsi 44 16/04/2007 2:00:32 PM
32 More horrifying LUE2-spawned couple: 60 15/04/2007 2:00:43 PM
31 You'd rather have as a roommate for the next year: 40 14/04/2007 2:00:29 PM
30 THIS POLL IS BLASPHEMY! THIS POLL IS MADNESS! 42 13/04/2007 2:00:23 PM
29 Your face is leaking. BUT FROM WHERE? 52 12/04/2007 2:00:17 PM
28 If you could have one special ability, it'd be: 55 11/04/2007 2:00:16 PM
27 Least favorite continent? 52 10/04/2007 2:00:17 PM
26 Abortion? 60 09/04/2007 2:00:17 PM
25 Pokemon? 45 08/04/2007 2:00:14 PM
24 If you had to, you'd rather: 55 07/04/2007 2:00:28 PM
23 Peanut butter and 34 06/04/2007 2:00:14 PM
22 Senton: Ten years from now... 56 04/04/2007 10:07:24 AM
21 Barack Obama = 42 03/04/2007 2:00:23 PM
20 Hillary Clinton = 60 02/04/2007 2:00:26 PM
19 Who would be most frightening to have as your father? 47 01/04/2007 2:00:12 PM
18 ZOMBIE INVASION! What weapon do you choose? 65 31/03/2007 2:00:12 PM
17 The father of your baby is 32 30/03/2007 2:00:19 PM
16 You get to be part of a super-secret organization. It's 48 29/03/2007 2:00:14 PM
15 You find $1 million dollars lying in a sack in the middle of the street. You... 58 28/03/2007 2:00:17 PM
14 Age-old question: 48 27/03/2007 2:00:14 PM
13 Favorite hair color in a girl? 58 26/03/2007 2:00:15 PM
12 Best type of ethnic food? 67 23/03/2007 2:00:22 PM
11 Michael Jackson: 32 22/03/2007 2:00:13 PM
10 This one's for you, Hoyt. 36 21/03/2007 2:00:12 PM
9 You're playing Rock, Paper, Scissors. You choose... 44 20/03/2007 2:00:12 PM
8 Question of the ages 30 19/03/2007 2:00:13 PM
7 Operating System? 41 18/03/2007 2:00:15 PM
6 Browser? 38 17/03/2007 2:00:13 PM
5 You must eat one. 43 16/03/2007 2:00:18 PM
4 Will the next American Idol be a guy or girl? 35 15/03/2007 2:00:10 PM
3 Who are you more tired of? 44 14/03/2007 1:37:43 AM
2 admins 37 12/03/2007 11:46:40 PM
1 hi 22 10/03/2007 12:29:07 PM